QPF
0.00 0.00 0.00 0.01 0.02 0.03 0.03 0.02 0.03 0.02 0.02 0.01 0.02 0.02 0.01 0.01 0.02 0.02 0.01 0.01 0.00 0.00 0.01 0.01 0.01 0.01 0.01 0.00 0.00 0.00 0.00 0.00 0.00 0.00 0.00 0.00 0.00 0.00 0.00 0.00 0.01 0.01 0.01 0.01 0.01 0.01 0.00 0.00 0.01
0.00 0.00 0.00 0.01 0.02 0.02 0.02 0.02 0.03 0.03 0.03 0.01 0.02 0.01 0.01 0.01 0.00 0.01 0.01 0.01 0.00 0.00 0.00 0.01 0.01 0.01 0.01 0.00 0.00 0.00 0.00 0.00 0.00 0.00 0.00 0.00 0.00 0.00 0.01 0.01 0.01 0.01 0.01 0.01 0.01 0.01 0.01 0.01 0.01
0.00 0.00 0.01 0.01 0.02 0.01 0.01 0.01 0.02 0.03 0.03 0.02 0.02 0.02 0.01 0.01 0.00 0.01 0.01 0.01 0.00 0.00 0.01 0.01 0.01 0.01 0.01 0.00 0.00 0.00 0.00 0.00 0.00 0.00 0.00 0.00 0.00 0.01 0.01 0.00 0.00 0.01 0.01 0.01 0.01 0.01 0.01 0.01 0.01
0.00 0.00 0.01 0.01 0.01 0.00 0.01 0.01 0.02 0.03 0.03 0.01 0.01 0.01 0.01 0.01 0.01 0.01 0.01 0.01 0.00 0.00 0.01 0.01 0.01 0.01 0.01 0.00 0.00 0.00 0.00 0.00 0.00 0.00 0.00 0.00 0.00 0.01 0.00 0.00 0.01 0.00 0.00 0.00 0.00 0.01 0.01 0.02 0.02
0.00 0.01 0.01 0.01 0.00 0.00 0.01 0.01 0.01 0.01 0.01 0.01 0.01 0.01 0.01 0.01 0.02 0.03 0.03 0.02 0.01 0.00 0.00 0.01 0.01 0.01 0.01 0.00 0.00 0.00 0.00 0.00 0.00 0.00 0.00 0.00 0.00 0.00 0.00 0.00 0.00 0.00 0.00 0.01 0.01 0.01 0.01 0.02 0.02
0.00 0.01 0.01 0.00 0.00 0.00 0.03 0.02 0.02 0.01 0.01 0.01 0.01 0.01 0.01 0.03 0.03 0.04 0.04 0.03 0.01 0.01 0.01 0.01 0.01 0.01 0.01 0.00 0.00 0.00 0.00 0.00 0.00 0.00 0.00 0.00 0.00 0.00 0.00 0.00 0.00 0.01 0.01 0.01 0.01 0.01 0.01 0.01 0.02
0.00 0.01 0.00 0.00 0.00 0.00 0.02 0.03 0.01 0.01 0.01 0.01 0.00 0.00 0.01 0.03 0.03 0.03 0.03 0.03 0.01 0.01 0.02 0.02 0.01 0.01 0.01 0.00 0.00 0.00 0.00 0.00 0.00 0.00 0.00 0.00 0.00 0.00 0.00 0.00 0.00 0.00 0.00 0.00 0.00 0.00 0.01 0.01 0.02
0.00 0.00 0.00 0.00 0.00 0.00 0.01 0.03 0.01 0.01 0.01 0.00 0.00 0.00 0.01 0.02 0.04 0.05 0.07 0.08 0.05 0.05 0.05 0.03 0.02 0.02 0.01 0.01 0.00 0.01 0.01 0.01 0.01 0.01 0.01 0.00 0.00 0.00 0.00 0.00 0.01 0.01 0.00 0.00 0.00 0.01 0.01 0.01 0.02
0.00 0.00 0.00 0.00 0.00 0.00 0.00 0.01 0.01 0.00 0.01 0.01 0.01 0.01 0.01 0.02 0.04 0.08 0.10 0.10 0.13 0.13 0.11 0.07 0.05 0.03 0.03 0.02 0.01 0.01 0.01 0.01 0.01 0.01 0.01 0.01 0.01 0.00 0.00 0.00 0.01 0.01 0.02 0.01 0.01 0.01 0.01 0.01 0.02
0.00 0.00 0.00 0.00 0.00 0.00 0.00 0.00 0.00 0.00 0.00 0.00 0.00 0.00 0.01 0.04 0.06 0.07 0.10 0.10 0.12 0.17 0.16 0.11 0.08 0.05 0.04 0.03 0.02 0.01 0.01 0.01 0.01 0.01 0.01 0.01 0.01 0.01 0.01 0.02 0.03 0.04 0.04 0.03 0.02 0.03 0.02 0.01 0.02
0.00 0.00 0.00 0.00 0.00 0.00 0.00 0.00 0.00 0.00 0.00 0.00 0.00 0.01 0.01 0.03 0.07 0.09 0.13 0.16 0.19 0.25 0.25 0.14 0.10 0.08 0.06 0.04 0.05 0.03 0.01 0.01 0.00 0.01 0.01 0.01 0.01 0.01 0.02 0.02 0.04 0.06 0.06 0.05 0.04 0.04 0.03 0.02 0.03
0.00 0.00 0.00 0.00 0.00 0.00 0.00 0.00 0.00 0.00 0.00 0.00 0.00 0.00 0.01 0.03 0.07 0.14 0.22 0.28 0.32 0.36 0.32 0.18 0.11 0.09 0.08 0.07 0.07 0.07 0.03 0.01 0.01 0.01 0.01 0.01 0.02 0.03 0.02 0.02 0.03 0.04 0.05 0.03 0.04 0.03 0.02 0.02 0.02
0.00 0.00 0.00 0.00 0.00 0.00 0.00 0.00 0.00 0.00 0.00 0.00 0.00 0.01 0.02 0.04 0.12 0.22 0.28 0.32 0.33 0.40 0.34 0.25 0.17 0.10 0.09 0.09 0.07 0.08 0.05 0.03 0.02 0.02 0.02 0.03 0.04 0.04 0.03 0.02 0.02 0.02 0.02 0.02 0.02 0.02 0.02 0.02 0.02
0.00 0.00 0.00 0.00 0.00 0.00 0.00 0.00 0.00 0.00 0.00 0.01 0.01 0.01 0.01 0.04 0.13 0.19 0.26 0.32 0.32 0.44 0.41 0.27 0.21 0.16 0.11 0.11 0.08 0.07 0.06 0.04 0.03 0.03 0.04 0.04 0.04 0.03 0.03 0.03 0.02 0.01 0.01 0.01 0.01 0.02 0.01 0.01 0.01
0.00 0.00 0.00 0.00 0.00 0.00 0.00 0.00 0.00 0.00 0.00 0.01 0.01 0.01 0.01 0.03 0.09 0.13 0.18 0.22 0.33 0.42 0.44 0.32 0.23 0.21 0.15 0.13 0.11 0.07 0.05 0.04 0.04 0.04 0.03 0.03 0.02 0.02 0.03 0.03 0.02 0.01 0.02 0.01 0.01 0.01 0.00 0.01 0.01
0.00 0.00 0.00 0.00 0.00 0.00 0.00 0.00 0.00 0.00 0.01 0.01 0.01 0.01 0.02 0.03 0.07 0.11 0.13 0.15 0.25 0.33 0.36 0.26 0.21 0.24 0.20 0.16 0.16 0.11 0.06 0.05 0.04 0.04 0.03 0.03 0.03 0.02 0.01 0.01 0.01 0.01 0.02 0.01 0.01 0.01 0.00 0.00 0.01
0.00 0.00 0.00 0.00 0.00 0.00 0.00 0.00 0.00 0.00 0.01 0.01 0.01 0.02 0.04 0.05 0.09 0.11 0.13 0.12 0.14 0.25 0.32 0.24 0.22 0.25 0.20 0.17 0.18 0.14 0.10 0.06 0.05 0.06 0.05 0.04 0.04 0.03 0.02 0.02 0.01 0.01 0.02 0.01 0.01 0.00 0.00 0.00 0.00
0.00 0.00 0.00 0.00 0.00 0.00 0.00 0.00 0.00 0.01 0.01 0.01 0.02 0.02 0.03 0.11 0.12 0.09 0.09 0.12 0.16 0.19 0.24 0.23 0.22 0.21 0.17 0.14 0.13 0.12 0.12 0.10 0.08 0.06 0.06 0.05 0.04 0.03 0.02 0.02 0.01 0.01 0.01 0.01 0.01 0.00 0.00 0.00 0.00
0.00 0.00 0.00 0.00 0.00 0.00 0.00 0.00 0.00 0.01 0.01 0.02 0.02 0.04 0.04 0.07 0.07 0.08 0.08 0.13 0.19 0.20 0.27 0.31 0.26 0.20 0.17 0.14 0.12 0.10 0.08 0.09 0.08 0.06 0.05 0.05 0.04 0.03 0.03 0.02 0.01 0.00 0.00 0.01 0.00 0.00 0.01 0.01 0.00
0.00 0.00 0.00 0.00 0.00 0.00 0.00 0.00 0.00 0.01 0.02 0.03 0.04 0.06 0.04 0.04 0.05 0.07 0.09 0.13 0.18 0.22 0.32 0.38 0.40 0.32 0.27 0.21 0.18 0.17 0.14 0.12 0.10 0.08 0.07 0.04 0.03 0.02 0.02 0.01 0.01 0.00 0.01 0.01 0.00 0.00 0.00 0.00 0.00
0.00 0.00 0.00 0.00 0.00 0.00 0.00 0.00 0.01 0.01 0.02 0.03 0.02 0.02 0.02 0.03 0.03 0.07 0.12 0.17 0.22 0.24 0.30 0.35 0.37 0.38 0.37 0.33 0.28 0.24 0.19 0.15 0.10 0.07 0.06 0.04 0.02 0.01 0.01 0.01 0.00 0.00 0.00 0.00 0.00 0.00 0.00 0.00 0.00
0.00 0.00 0.00 0.00 0.00 0.00 0.00 0.00 0.01 0.01 0.02 0.02 0.01 0.01 0.01 0.02 0.03 0.05 0.11 0.16 0.21 0.19 0.23 0.25 0.29 0.33 0.37 0.38 0.33 0.25 0.19 0.13 0.09 0.06 0.05 0.04 0.02 0.02 0.01 0.01 0.01 0.00 0.00 0.00 0.00 0.00 0.00 0.00 0.00
0.00 0.00 0.00 0.00 0.00 0.00 0.00 0.00 0.00 0.01 0.02 0.01 0.01 0.01 0.01 0.01 0.01 0.02 0.04 0.07 0.12 0.13 0.16 0.16 0.20 0.24 0.26 0.32 0.38 0.30 0.22 0.16 0.12 0.09 0.07 0.05 0.03 0.02 0.03 0.02 0.01 0.01 0.01 0.00 0.00 0.00 0.00 0.00 0.00
0.00 0.00 0.00 0.00 0.00 0.00 0.00 0.00 0.00 0.01 0.01 0.00 0.01 0.01 0.00 0.00 0.00 0.01 0.02 0.05 0.08 0.08 0.09 0.10 0.14 0.18 0.18 0.20 0.24 0.28 0.23 0.17 0.13 0.09 0.06 0.06 0.06 0.04 0.04 0.03 0.02 0.01 0.01 0.01 0.00 0.00 0.00 0.00 0.00
0.00 0.00 0.00 0.00 0.00 0.00 0.00 0.00 0.00 0.00 0.00 0.00 0.00 0.00 0.00 0.00 0.00 0.01 0.01 0.03 0.05 0.05 0.05 0.07 0.12 0.19 0.17 0.13 0.12 0.16 0.15 0.11 0.09 0.09 0.07 0.05 0.04 0.03 0.03 0.02 0.01 0.01 0.01 0.01 0.00 0.00 0.00 0.00 0.00
0.00 0.00 0.00 0.00 0.00 0.00 0.00 0.00 0.00 0.00 0.00 0.00 0.00 0.00 0.00 0.00 0.00 0.00 0.01 0.01 0.02 0.04 0.05 0.03 0.06 0.13 0.19 0.16 0.11 0.10 0.10 0.09 0.06 0.05 0.05 0.05 0.04 0.03 0.03 0.02 0.02 0.01 0.01 0.00 0.00 0.00 0.00 0.00 0.00
0.00 0.00 0.00 0.00 0.00 0.00 0.00 0.00 0.00 0.00 0.00 0.00 0.00 0.00 0.00 0.00 0.00 0.00 0.01 0.01 0.01 0.03 0.05 0.03 0.03 0.05 0.11 0.15 0.14 0.10 0.08 0.06 0.05 0.03 0.02 0.03 0.02 0.03 0.03 0.03 0.02 0.02 0.01 0.01 0.00 0.00 0.00 0.00 0.00
0.00 0.00 0.01 0.00 0.00 0.00 0.00 0.00 0.00 0.00 0.00 0.00 0.00 0.00 0.00 0.01 0.01 0.00 0.00 0.01 0.00 0.01 0.04 0.04 0.03 0.03 0.06 0.12 0.12 0.11 0.08 0.05 0.04 0.04 0.03 0.02 0.02 0.02 0.02 0.02 0.02 0.02 0.02 0.01 0.00 0.00 0.00 0.00 0.00
0.00 0.00 0.00 0.00 0.01 0.01 0.00 0.00 0.00 0.00 0.00 0.00 0.01 0.01 0.01 0.01 0.01 0.00 0.00 0.00 0.00 0.01 0.03 0.04 0.04 0.03 0.04 0.08 0.10 0.10 0.08 0.07 0.06 0.04 0.04 0.03 0.02 0.01 0.01 0.01 0.01 0.02 0.02 0.02 0.01 0.00 0.00 0.00 0.00
0.00 0.00 0.00 0.01 0.01 0.01 0.00 0.00 0.00 0.00 0.00 0.00 0.01 0.01 0.01 0.01 0.01 0.00 0.00 0.00 0.00 0.00 0.02 0.05 0.04 0.04 0.05 0.08 0.10 0.08 0.07 0.08 0.07 0.05 0.04 0.04 0.03 0.01 0.01 0.01 0.01 0.02 0.02 0.02 0.01 0.01 0.00 0.00 0.00
MSLP
1009.43 1010.43 1011.49 1012.44 1013.13 1013.49 1013.49 1013.20 1012.73 1012.22 1011.79 1011.53 1011.44 1011.50 1011.65 1011.80 1011.87 1011.83 1011.68 1011.47 1011.28 1011.17 1011.20 1011.40 1011.75 1012.20 1012.68 1013.13 1013.49 1013.74 1013.89 1013.95 1014.00 1014.06 1014.19 1014.38 1014.63 1014.91 1015.20 1015.45 1015.65 1015.78 1015.85 1015.89 1015.92 1015.96 1016.02 1016.11 1016.22
1009.93 1011.08 1012.20 1013.12 1013.69 1013.85 1013.62 1013.06 1012.34 1011.61 1011.00 1010.60 1010.44 1010.48 1010.64 1010.83 1010.96 1011.01 1010.96 1010.87 1010.80 1010.81 1010.95 1011.26 1011.70 1012.23 1012.77 1013.27 1013.68 1013.98 1014.17 1014.28 1014.37 1014.47 1014.61 1014.80 1015.03 1015.27 1015.50 1015.70 1015.84 1015.94 1015.99 1016.03 1016.07 1016.12 1016.20 1016.30 1016.41
1010.54 1011.76 1012.88 1013.70 1014.11 1014.06 1013.58 1012.81 1011.89 1011.00 1010.29 1009.83 1009.65 1009.69 1009.87 1010.10 1010.30 1010.41 1010.44 1010.44 1010.46 1010.57 1010.81 1011.20 1011.71 1012.28 1012.87 1013.40 1013.84 1014.17 1014.40 1014.56 1014.69 1014.82 1014.97 1015.15 1015.36 1015.56 1015.74 1015.88 1015.99 1016.05 1016.10 1016.14 1016.20 1016.27 1016.36 1016.47 1016.59
1011.21 1012.44 1013.47 1014.14 1014.35 1014.08 1013.40 1012.46 1011.43 1010.48 1009.74 1009.30 1009.14 1009.22 1009.43 1009.69 1009.92 1010.07 1010.16 1010.22 1010.31 1010.49 1010.80 1011.24 1011.79 1012.39 1012.98 1013.52 1013.96 1014.31 1014.56 1014.75 1014.92 1015.08 1015.25 1015.43 1015.62 1015.79 1015.93 1016.04 1016.12 1016.17 1016.22 1016.28 1016.35 1016.45 1016.56 1016.68 1016.80
1011.90 1013.04 1013.91 1014.38 1014.37 1013.90 1013.08 1012.05 1010.99 1010.06 1009.39 1009.02 1008.93 1009.06 1009.31 1009.59 1009.82 1009.99 1010.09 1010.19 1010.32 1010.55 1010.90 1011.37 1011.93 1012.53 1013.11 1013.62 1014.05 1014.39 1014.66 1014.87 1015.07 1015.26 1015.45 1015.65 1015.83 1015.99 1016.12 1016.21 1016.28 1016.34 1016.40 1016.48 1016.58 1016.69 1016.81 1016.93 1017.06
1012.51 1013.49 1014.15 1014.37 1014.15 1013.52 1012.61 1011.57 1010.56 1009.75 1009.21 1008.96 1008.97 1009.16 1009.43 1009.71 1009.93 1010.08 1010.18 1010.28 1010.44 1010.70 1011.08 1011.56 1012.12 1012.69 1013.24 1013.72 1014.11 1014.44 1014.70 1014.94 1015.16 1015.39 1015.62 1015.84 1016.04 1016.20 1016.33 1016.42 1016.50 1016.57 1016.65 1016.75 1016.86 1016.99 1017.11 1017.23 1017.35
1012.96 1013.72 1014.12 1014.11 1013.68 1012.94 1012.00 1011.01 1010.14 1009.49 1009.12 1009.02 1009.13 1009.38 1009.67 1009.92 1010.11 1010.23 1010.32 1010.42 1010.60 1010.89 1011.28 1011.77 1012.32 1012.86 1013.36 1013.80 1014.16 1014.46 1014.72 1014.97 1015.23 1015.50 1015.77 1016.03 1016.26 1016.45 1016.59 1016.69 1016.78 1016.86 1016.96 1017.07 1017.20 1017.33 1017.45 1017.55 1017.66
1013.19 1013.70 1013.83 1013.58 1013.00 1012.18 1011.26 1010.39 1009.68 1009.22 1009.03 1009.07 1009.28 1009.57 1009.86 1010.09 1010.24 1010.33 1010.41 1010.53 1010.73 1011.05 1011.47 1011.97 1012.51 1013.02 1013.48 1013.87 1014.20 1014.48 1014.74 1015.02 1015.31 1015.63 1015.95 1016.26 1016.52 1016.73 1016.88 1016.99 1017.09 1017.18 1017.28 1017.40 1017.52 1017.65 1017.76 1017.86 1017.94
1013.16 1013.41 1013.30 1012.86 1012.16 1011.31 1010.45 1009.70 1009.17 1008.89 1008.86 1009.03 1009.31 1009.62 1009.90 1010.10 1010.23 1010.31 1010.40 1010.55 1010.80 1011.16 1011.62 1012.14 1012.67 1013.16 1013.58 1013.94 1014.24 1014.50 1014.78 1015.08 1015.42 1015.78 1016.15 1016.50 1016.80 1017.02 1017.19 1017.30 1017.39 1017.47 1017.57 1017.68 1017.81 1017.93 1018.03 1018.12 1018.18
1012.88 1012.91 1012.60 1012.01 1011.24 1010.40 1009.62 1009.00 1008.61 1008.48 1008.57 1008.81 1009.14 1009.46 1009.72 1009.91 1010.04 1010.14 1010.27 1010.48 1010.80 1011.22 1011.72 1012.27 1012.79 1013.27 1013.67 1014.00 1014.27 1014.54 1014.82 1015.15 1015.53 1015.95 1016.36 1016.74 1017.07 1017.31 1017.48 1017.58 1017.65 1017.72 1017.80 1017.90 1018.02 1018.13 1018.24 1018.32 1018.38
1012.44 1012.29 1011.84 1011.16 1010.35 1009.54 1008.84 1008.32 1008.04 1008.00 1008.15 1008.43 1008.76 1009.07 1009.33 1009.52 1009.68 1009.83 1010.04 1010.34 1010.74 1011.23 1011.79 1012.36 1012.89 1013.35 1013.73 1014.04 1014.31 1014.57 1014.87 1015.23 1015.64 1016.09 1016.54 1016.95 1017.30 1017.55 1017.71 1017.80 1017.86 1017.91 1017.97 1018.05 1018.16 1018.28 1018.39 1018.48 1018.55
1011.94 1011.68 1011.14 1010.42 1009.62 1008.85 1008.20 1007.75 1007.52 1007.50 1007.66 1007.91 1008.22 1008.51 1008.77 1009.00 1009.22 1009.46 1009.77 1010.17 1010.67 1011.23 1011.83 1012.42 1012.95 1013.40 1013.76 1014.06 1014.32 1014.59 1014.91 1015.28 1015.72 1016.20 1016.67 1017.10 1017.45 1017.71 1017.88 1017.96 1018.00 1018.04 1018.08 1018.16 1018.27 1018.40 1018.53 1018.64 1018.72
1011.51 1011.19 1010.62 1009.90 1009.13 1008.39 1007.78 1007.35 1007.11 1007.05 1007.15 1007.35 1007.61 1007.89 1008.17 1008.45 1008.76 1009.11 1009.54 1010.04 1010.61 1011.23 1011.86 1012.45 1012.98 1013.41 1013.76 1014.05 1014.31 1014.59 1014.91 1015.30 1015.75 1016.24 1016.72 1017.16 1017.53 1017.79 1017.97 1018.06 1018.11 1018.14 1018.19 1018.27 1018.38 1018.53 1018.68 1018.82 1018.94
1011.28 1010.93 1010.38 1009.69 1008.95 1008.24 1007.63 1007.17 1006.87 1006.73 1006.73 1006.84 1007.04 1007.31 1007.62 1007.97 1008.38 1008.85 1009.38 1009.97 1010.60 1011.24 1011.87 1012.45 1012.95 1013.37 1013.71 1014.00 1014.27 1014.56 1014.89 1015.29 1015.74 1016.22 1016.70 1017.14 1017.51 1017.80 1018.00 1018.12 1018.19 1018.25 1018.31 1018.41 1018.54 1018.70 1018.88 1019.05 1019.20
1011.27 1010.93 1010.41 1009.77 1009.07 1008.39 1007.76 1007.23 1006.83 1006.57 1006.45 1006.47 1006.61 1006.86 1007.21 1007.64 1008.15 1008.71 1009.32 1009.96 1010.61 1011.25 1011.84 1012.38 1012.86 1013.26 1013.60 1013.91 1014.21 1014.52 1014.86 1015.25 1015.69 1016.15 1016.61 1017.05 1017.43 1017.75 1017.99 1018.16 1018.28 1018.38 1018.48 1018.60 1018.76 1018.94 1019.14 1019.34 1019.52
1011.46 1011.16 1010.69 1010.11 1009.46 1008.79 1008.13 1007.53 1007.01 1006.62 1006.37 1006.29 1006.37 1006.61 1006.99 1007.49 1008.07 1008.70 1009.36 1010.00 1010.62 1011.21 1011.74 1012.23 1012.67 1013.07 1013.44 1013.79 1014.13 1014.47 1014.84 1015.23 1015.64 1016.07 1016.50 1016.92 1017.32 1017.66 1017.96 1018.19 1018.39 1018.55 1018.70 1018.85 1019.02 1019.22 1019.43 1019.64 1019.84
1011.77 1011.51 1011.11 1010.61 1010.02 1009.37 1008.69 1008.01 1007.38 1006.86 1006.49 1006.31 1006.34 1006.57 1006.97 1007.51 1008.14 1008.80 1009.44 1010.04 1010.59 1011.09 1011.54 1011.97 1012.39 1012.80 1013.22 1013.64 1014.05 1014.45 1014.85 1015.23 1015.62 1016.01 1016.40 1016.80 1017.19 1017.57 1017.92 1018.23 1018.50 1018.74 1018.94 1019.13 1019.31 1019.51 1019.72 1019.94 1020.15
1012.07 1011.87 1011.57 1011.16 1010.66 1010.05 1009.36 1008.63 1007.91 1007.27 1006.79 1006.52 1006.49 1006.70 1007.11 1007.66 1008.29 1008.93 1009.51 1010.03 1010.47 1010.85 1011.22 1011.59 1011.99 1012.45 1012.94 1013.46 1013.97 1014.46 1014.90 1015.30 1015.66 1016.00 1016.34 1016.70 1017.08 1017.48 1017.88 1018.27 1018.62 1018.92 1019.18 1019.40 1019.59 1019.78 1019.97 1020.18 1020.40
1012.22 1012.12 1011.95 1011.68 1011.30 1010.76 1010.10 1009.33 1008.54 1007.81 1007.23 1006.87 1006.78 1006.95 1007.33 1007.87 1008.46 1009.04 1009.54 1009.93 1010.24 1010.51 1010.77 1011.09 1011.51 1012.03 1012.63 1013.27 1013.91 1014.49 1015.00 1015.42 1015.76 1016.05 1016.34 1016.65 1017.01 1017.41 1017.85 1018.30 1018.72 1019.09 1019.39 1019.63 1019.82 1019.99 1020.16 1020.35 1020.57
1012.17 1012.20 1012.20 1012.11 1011.88 1011.46 1010.84 1010.07 1009.23 1008.41 1007.74 1007.29 1007.13 1007.24 1007.58 1008.07 1008.60 1009.09 1009.48 1009.75 1009.92 1010.06 1010.24 1010.53 1010.97 1011.56 1012.28 1013.06 1013.84 1014.54 1015.13 1015.58 1015.91 1016.16 1016.39 1016.65 1016.97 1017.37 1017.83 1018.32 1018.79 1019.21 1019.55 1019.81 1019.99 1020.14 1020.29 1020.45 1020.66
1011.89 1012.10 1012.32 1012.44 1012.39 1012.11 1011.57 1010.81 1009.93 1009.03 1008.26 1007.72 1007.47 1007.51 1007.78 1008.20 1008.66 1009.06 1009.34 1009.49 1009.54 1009.58 1009.69 1009.95 1010.42 1011.09 1011.93 1012.85 1013.76 1014.58 1015.25 1015.74 1016.07 1016.29 1016.47 1016.68 1016.97 1017.35 1017.81 1018.32 1018.83 1019.29 1019.65 1019.92 1020.10 1020.23 1020.34 1020.49 1020.69
1011.47 1011.90 1012.35 1012.71 1012.86 1012.73 1012.27 1011.53 1010.60 1009.62 1008.75 1008.10 1007.74 1007.69 1007.89 1008.24 1008.63 1008.96 1009.15 1009.21 1009.18 1009.14 1009.20 1009.44 1009.93 1010.67 1011.60 1012.63 1013.66 1014.59 1015.34 1015.87 1016.21 1016.42 1016.57 1016.73 1016.98 1017.34 1017.80 1018.33 1018.85 1019.33 1019.71 1019.98 1020.16 1020.27 1020.36 1020.49 1020.68
1011.02 1011.68 1012.38 1012.97 1013.32 1013.31 1012.92 1012.18 1011.20 1010.13 1009.14 1008.37 1007.91 1007.77 1007.89 1008.19 1008.53 1008.82 1008.97 1008.98 1008.90 1008.82 1008.84 1009.07 1009.57 1010.34 1011.32 1012.43 1013.53 1014.54 1015.35 1015.93 1016.29 1016.50 1016.63 1016.78 1017.01 1017.35 1017.80 1018.32 1018.86 1019.34 1019.73 1020.01 1020.18 1020.28 1020.36 1020.47 1020.66
1010.66 1011.54 1012.47 1013.26 1013.77 1013.86 1013.51 1012.75 1011.70 1010.52 1009.41 1008.52 1007.95 1007.73 1007.80 1008.06 1008.40 1008.68 1008.84 1008.85 1008.77 1008.68 1008.69 1008.90 1009.38 1010.14 1011.13 1012.25 1013.39 1014.43 1015.28 1015.89 1016.29 1016.51 1016.65 1016.80 1017.02 1017.35 1017.79 1018.31 1018.84 1019.33 1019.73 1020.01 1020.19 1020.28 1020.36 1020.46 1020.63
1010.49 1011.55 1012.65 1013.59 1014.20 1014.34 1013.99 1013.18 1012.05 1010.76 1009.54 1008.54 1007.88 1007.59 1007.63 1007.90 1008.26 1008.59 1008.80 1008.87 1008.83 1008.76 1008.76 1008.95 1009.40 1010.11 1011.05 1012.13 1013.24 1014.27 1015.13 1015.76 1016.18 1016.44 1016.61 1016.77 1017.00 1017.33 1017.77 1018.28 1018.81 1019.30 1019.70 1019.99 1020.17 1020.27 1020.34 1020.44 1020.61
1010.51 1011.69 1012.89 1013.91 1014.55 1014.70 1014.31 1013.43 1012.21 1010.82 1009.50 1008.42 1007.70 1007.38 1007.42 1007.72 1008.15 1008.56 1008.87 1009.04 1009.07 1009.04 1009.06 1009.23 1009.61 1010.24 1011.09 1012.08 1013.12 1014.09 1014.92 1015.56 1016.00 1016.29 1016.50 1016.70 1016.95 1017.29 1017.73 1018.23 1018.75 1019.23 1019.63 1019.93 1020.12 1020.23 1020.32 1020.41 1020.57
1010.69 1011.91 1013.13 1014.13 1014.75 1014.84 1014.39 1013.45 1012.15 1010.70 1009.32 1008.19 1007.44 1007.12 1007.20 1007.56 1008.08 1008.60 1009.04 1009.31 1009.45 1009.49 1009.54 1009.68 1010.00 1010.52 1011.25 1012.11 1013.03 1013.91 1014.69 1015.31 1015.76 1016.08 1016.33 1016.57 1016.85 1017.20 1017.64 1018.14 1018.64 1019.12 1019.51 1019.81 1020.02 1020.15 1020.25 1020.36 1020.50
1010.92 1012.10 1013.25 1014.18 1014.71 1014.72 1014.19 1013.19 1011.86 1010.38 1008.99 1007.87 1007.14 1006.86 1006.98 1007.42 1008.03 1008.68 1009.23 1009.64 1009.88 1010.00 1010.09 1010.22 1010.47 1010.90 1011.49 1012.21 1012.99 1013.77 1014.46 1015.04 1015.49 1015.84 1016.12 1016.39 1016.70 1017.07 1017.50 1017.98 1018.47 1018.93 1019.32 1019.63 1019.85 1020.01 1020.13 1020.25 1020.40
1011.09 1012.16 1013.18 1013.97 1014.37 1014.28 1013.69 1012.66 1011.34 1009.90 1008.56 1007.50 1006.83 1006.60 1006.79 1007.29 1007.98 1008.72 1009.39 1009.91 1010.25 1010.46 1010.60 1010.73 1010.95 1011.29 1011.76 1012.34 1012.99 1013.65 1014.27 1014.79 1015.22 1015.58 1015.88 1016.18 1016.50 1016.87 1017.30 1017.76 1018.22 1018.66 1019.05 1019.36 1019.60 1019.79 1019.94 1020.08 1020.23
1011.13 1012.03 1012.87 1013.48 1013.73 1013.54 1012.91 1011.90 1010.64 1009.29 1008.06 1007.11 1006.53 1006.37 1006.60 1007.15 1007.89 1008.69 1009.42 1010.02 1010.46 1010.75 1010.95 1011.11 1011.31 1011.60 1011.99 1012.47 1013.01 1013.56 1014.09 1014.56 1014.96 1015.31 1015.62 1015.92 1016.25 1016.62 1017.03 1017.46 1017.90 1018.32 1018.69 1019.01 1019.27 1019.48 1019.66 1019.82 1020.00
Thickness
5808 5805 5801 5791 5773 5756 5755 5768 5779 5782 5785 5794 5797 5792 5785 5780 5773 5771 5791 5800 5797 5791 5786 5782 5780 5778 5776 5774 5773 5772 5771 5770 5769 5769 5768 5767 5766 5765 5764 5763 5761 5760 5758 5757 5755 5754 5753 5752 5751
5808 5803 5794 5780 5760 5744 5755 5775 5780 5786 5794 5798 5796 5792 5786 5783 5789 5788 5791 5795 5796 5791 5786 5782 5779 5777 5775 5773 5772 5770 5769 5769 5768 5767 5766 5765 5764 5763 5762 5761 5759 5758 5756 5755 5753 5752 5751 5750 5749
5807 5802 5783 5768 5756 5750 5761 5780 5786 5795 5800 5797 5790 5790 5786 5783 5789 5789 5794 5794 5792 5788 5784 5781 5778 5776 5774 5772 5770 5769 5768 5767 5766 5765 5764 5763 5762 5761 5760 5758 5757 5756 5754 5752 5751 5750 5749 5748 5747
5803 5789 5777 5761 5756 5768 5777 5788 5793 5791 5793 5795 5789 5783 5787 5794 5794 5794 5795 5792 5787 5784 5782 5779 5776 5774 5772 5770 5769 5767 5766 5765 5764 5763 5762 5761 5760 5759 5757 5756 5755 5753 5752 5750 5749 5747 5746 5746 5745
5797 5779 5762 5752 5759 5777 5790 5797 5796 5788 5788 5791 5787 5778 5780 5792 5798 5796 5793 5789 5785 5781 5779 5777 5775 5772 5771 5769 5767 5766 5764 5763 5762 5761 5759 5758 5757 5756 5755 5753 5752 5751 5749 5748 5746 5745 5744 5743 5743
5781 5770 5751 5747 5762 5782 5794 5801 5797 5790 5788 5790 5785 5777 5777 5788 5791 5790 5789 5785 5783 5780 5777 5774 5772 5770 5768 5767 5765 5764 5763 5761 5760 5759 5757 5756 5755 5753 5752 5751 5750 5748 5747 5746 5744 5743 5742 5741 5740
5775 5761 5753 5757 5762 5776 5794 5803 5795 5788 5786 5788 5789 5774 5775 5782 5786 5787 5785 5782 5778 5776 5774 5771 5770 5768 5766 5764 5763 5762 5761 5759 5758 5757 5755 5753 5752 5751 5749 5748 5747 5745 5744 5743 5741 5740 5739 5738 5738
5785 5765 5758 5757 5763 5774 5796 5799 5798 5791 5787 5796 5792 5776 5773 5781 5784 5782 5779 5775 5773 5771 5769 5768 5766 5765 5764 5762 5761 5760 5758 5757 5756 5754 5753 5751 5750 5748 5747 5745 5744 5743 5742 5740 5739 5738 5737 5736 5735
5788 5759 5750 5761 5769 5781 5796 5793 5796 5800 5793 5791 5793 5789 5788 5787 5781 5775 5770 5767 5765 5764 5764 5763 5762 5762 5761 5760 5759 5758 5757 5755 5754 5753 5751 5750 5748 5746 5745 5743 5742 5740 5739 5738 5737 5736 5735 5734 5733
5777 5754 5764 5782 5787 5790 5795 5793 5792 5790 5783 5783 5786 5788 5789 5782 5775 5769 5765 5762 5760 5759 5759 5759 5759 5758 5757 5756 5756 5755 5754 5753 5752 5750 5749 5747 5745 5744 5742 5741 5740 5738 5737 5736 5735 5734 5733 5732 5731
5778 5769 5783 5792 5798 5798 5794 5794 5796 5785 5776 5783 5784 5782 5781 5776 5770 5766 5764 5763 5760 5759 5757 5757 5756 5754 5754 5754 5753 5752 5751 5750 5749 5748 5747 5745 5743 5742 5740 5739 5738 5737 5736 5735 5734 5732 5732 5731 5730
5780 5785 5792 5797 5803 5799 5795 5795 5790 5786 5788 5797 5794 5788 5780 5772 5768 5764 5761 5760 5757 5755 5754 5754 5753 5751 5751 5751 5750 5749 5749 5748 5746 5746 5744 5743 5741 5740 5739 5737 5736 5735 5734 5733 5732 5731 5730 5729 5728
5783 5787 5796 5800 5800 5799 5797 5792 5789 5786 5794 5797 5792 5784 5777 5772 5767 5763 5759 5756 5753 5750 5748 5749 5750 5749 5748 5748 5747 5746 5746 5745 5744 5743 5742 5741 5739 5738 5737 5736 5734 5733 5732 5731 5730 5729 5728 5728 5727
5788 5791 5793 5796 5797 5799 5792 5789 5786 5786 5792 5789 5784 5778 5775 5770 5764 5759 5754 5750 5747 5746 5746 5745 5745 5745 5745 5745 5745 5744 5744 5743 5742 5741 5741 5740 5738 5737 5736 5734 5733 5731 5730 5729 5729 5728 5727 5726 5725
5790 5783 5785 5792 5794 5794 5790 5778 5781 5789 5788 5782 5779 5775 5771 5766 5762 5757 5753 5749 5746 5744 5743 5741 5742 5742 5743 5742 5742 5742 5742 5741 5740 5739 5739 5738 5737 5736 5734 5733 5732 5730 5729 5728 5727 5726 5725 5724 5723
5780 5769 5763 5781 5789 5791 5781 5765 5782 5788 5783 5776 5775 5772 5766 5762 5759 5755 5752 5748 5745 5742 5740 5740 5741 5740 5740 5739 5739 5739 5739 5739 5738 5737 5737 5736 5736 5735 5733 5732 5730 5729 5728 5727 5725 5724 5722 5721 5720
5755 5748 5753 5769 5785 5785 5776 5767 5779 5784 5779 5772 5771 5768 5763 5758 5755 5754 5751 5748 5745 5742 5740 5738 5739 5739 5738 5737 5736 5736 5736 5736 5736 5735 5735 5735 5734 5733 5732 5730 5729 5727 5726 5725 5724 5721 5720 5719 5718
5744 5747 5751 5757 5776 5778 5770 5768 5775 5777 5776 5770 5768 5764 5760 5755 5753 5753 5750 5746 5742 5740 5738 5736 5736 5736 5736 5734 5733 5732 5732 5733 5733 5734 5734 5733 5733 5732 5731 5729 5727 5726 5724 5723 5722 5720 5718 5717 5716
5756 5751 5747 5760 5778 5773 5767 5766 5769 5773 5771 5767 5763 5760 5757 5755 5754 5750 5747 5744 5739 5736 5734 5732 5732 5732 5732 5730 5728 5728 5728 5730 5730 5732 5732 5731 5731 5730 5729 5728 5726 5725 5723 5722 5720 5718 5717 5715 5715
5753 5747 5748 5762 5775 5770 5761 5762 5769 5769 5768 5767 5763 5759 5756 5753 5749 5747 5744 5741 5737 5733 5732 5730 5729 5728 5729 5730 5729 5728 5729 5728 5729 5729 5729 5729 5729 5729 5728 5727 5725 5724 5722 5720 5719 5718 5715 5714 5713
5752 5747 5751 5754 5765 5764 5758 5754 5760 5765 5766 5765 5763 5760 5756 5753 5748 5745 5742 5739 5736 5732 5730 5730 5727 5726 5727 5727 5726 5725 5725 5725 5724 5725 5727 5727 5728 5728 5728 5726 5724 5723 5722 5720 5719 5718 5716 5713 5711
5744 5762 5761 5758 5747 5736 5744 5727 5749 5756 5756 5759 5759 5757 5755 5753 5750 5745 5742 5738 5736 5735 5733 5730 5727 5726 5727 5727 5726 5725 5723 5722 5724 5725 5726 5726 5727 5727 5727 5725 5724 5723 5722 5720 5719 5718 5717 5715 5711
5757 5767 5761 5753 5741 5731 5733 5724 5736 5750 5749 5755 5758 5758 5757 5754 5751 5747 5744 5741 5738 5736 5733 5731 5729 5727 5727 5728 5727 5725 5724 5725 5724 5724 5724 5724 5724 5725 5725 5725 5724 5722 5721 5720 5719 5718 5717 5716 5713
5768 5756 5745 5732 5724 5715 5727 5721 5726 5741 5752 5758 5761 5761 5759 5756 5753 5749 5745 5742 5737 5735 5733 5731 5729 5728 5728 5727 5727 5726 5725 5724 5723 5721 5721 5721 5722 5723 5724 5724 5723 5722 5720 5719 5719 5718 5717 5715 5714
5758 5733 5709 5709 5700 5706 5723 5718 5727 5757 5764 5764 5763 5763 5762 5759 5754 5748 5744 5740 5737 5735 5734 5731 5730 5728 5728 5727 5727 5727 5726 5725 5724 5723 5722 5721 5720 5722 5723 5723 5722 5721 5720 5719 5718 5717 5716 5715 5714
5747 5735 5708 5698 5696 5705 5718 5716 5742 5767 5771 5770 5768 5766 5763 5759 5755 5751 5747 5743 5740 5738 5735 5733 5730 5729 5729 5728 5728 5728 5727 5725 5725 5725 5725 5724 5724 5724 5724 5723 5722 5721 5719 5718 5717 5716 5714 5713 5713
5741 5733 5735 5712 5706 5701 5709 5725 5748 5768 5766 5766 5764 5763 5761 5760 5757 5753 5750 5746 5743 5740 5738 5736 5733 5730 5729 5729 5728 5727 5727 5727 5726 5726 5726 5726 5726 5725 5724 5723 5722 5720 5718 5717 5715 5714 5712 5711 5710
5754 5738 5719 5707 5695 5693 5708 5718 5730 5755 5759 5761 5761 5760 5760 5760 5759 5756 5752 5749 5747 5744 5741 5738 5735 5734 5732 5731 5729 5729 5728 5728 5727 5727 5726 5726 5725 5725 5724 5722 5720 5718 5716 5715 5713 5712 5710 5708 5707
5738 5731 5720 5706 5705 5694 5693 5715 5753 5757 5761 5760 5761 5762 5761 5760 5760 5758 5755 5752 5749 5747 5743 5738 5736 5734 5733 5732 5731 5729 5728 5727 5727 5727 5727 5726 5725 5724 5723 5721 5719 5717 5714 5713 5711 5709 5708 5706 5704
5744 5734 5720 5709 5705 5701 5698 5719 5766 5764 5765 5764 5763 5765 5764 5762 5761 5759 5756 5753 5749 5747 5744 5741 5738 5736 5735 5734 5732 5729 5728 5726 5725 5725 5725 5725 5724 5723 5722 5720 5718 5715 5713 5711 5709 5707 5706 5704 5702